Location: Sternwarte ZA, Rosenfeld-Brittheim
(48.2889°N, 8.6789°E)
Time: 15:16:27
(UTC+02:00)

ISS - Pass Details

Date: 16 October 2017
Orbit: 401 x 408 km, 51.6° (Epoch: 18 October)

Event Time Altitude Azimuth Distance (km) Brightness Sun altitude
Rises 19:05:09 0° 288° (WNW) 2,324 1.4 -5.9°
Reaches altitude 10° 19:07:28 10° 274° (W) 1,462 0.7 -6.3°
Maximum altitude 19:10:10 24° 218° (SW) 888 -1.5 -6.7°
Drops below altitude 10° 19:12:52 10° 162° (SSE) 1,458 -1.1 -7.2°
Sets 19:15:10 0° 148° (SSE) 2,315 -0.3 -7.5°
